(131041) = 1997 GZ20 = 2000 YA13

Discovered at Haleakala on 2000-12-24 by NEAT.

Orbit

Orbit type: Main Belt

Note: WebGL enabled browser required.

epoch2024-03-31.0
epoch JD2460400.5
perihelion date2023-07-06.27410
perihelion JD2460131.77410
argument of perihelion (°)303.23609
ascending node (°)212.95857
inclination (°)10.10792
eccentricity0.2192313
perihelion distance (AU)2.1029064
Tisserand w.r.t. Jupiter3.3
ΔV w.r.t. Earth (km/sec)9.6
semimajor axis (AU)2.6933796
mean anomaly (°)59.91934
mean daily motion (°/day)0.22297570
aphelion distance (AU)3.284
period (years)4.42
P-vector [x]-0.90785939
P-vector [y]0.41872104
P-vector [z]0.02154123
Q-vector [x]-0.40825855
Q-vector [y]-0.87113847
Q-vector [z]-0.27284193
absolute magnitude15.59
phase slope0.15
uncertainty0
referenceMPEC 2024-E109
observations used1320
oppositions19
arc length (days)10008
first opposition used1995
last opposition used2023
residual rms (arc-secs)0.59
perturbers coarse indicatorM-v
perturbers precise indicator003Ek
first observation date used1995-09-28.0
last observation date used2023-02-21.0
computer nameMPCLINUX
JD of orbit computation2456819.399602
perihelion JD uncertainty (days)8.9766E-05
argument of perihelion uncertainty (°)4.0821E-05
ascending node uncertainty (°)3.5128E-05
inclination uncertainty (°)8.1963E-06
eccentricity uncertainty 5.6886E-08
perihelion distance uncertainty (AU)1.5675E-07
Minimum Orbit Intersection Distances (in AU)
for orbit epoch: 2460400.5, reference: E2024-EA9
Mercury1.74305
Venus1.4062
Earth1.13102
Mars0.53014
Jupiter1.80313
Saturn6.30275
Uranus16.3376
Neptune26.6963

Observations

1336 total observations over interval: 1995 09 28.81146 – 2023 02 21.855844
These data are available for download (format description).

Date (UT) J2000 RA J2000 Dec Magn Location Ref
1995 09 28.81146 03 03 05.07 +17 01 08.7   327 – Peking Observatory, Xinglong Station MPS 25378
1995 09 28.83329 03 03 04.61 +17 01 04.3   327 – Peking Observatory, Xinglong Station MPS 25378
1995 09 28.85448 03 03 04.24 +17 00 58.8 19.8 V 327 – Peking Observatory, Xinglong Station MPS 25378
1995 09 28.87565 03 03 03.80 +17 00 53.0   327 – Peking Observatory, Xinglong Station MPS 25378
1997 04 06.16167 12 51 12.48 -11 30 30.1 18.5 V 704 – Lincoln Laboratory ETS, New Mexico MPC 29541
1997 04 06.24986 12 51 08.60 -11 29 33.0   704 – Lincoln Laboratory ETS, New Mexico MPC 29541
1997 04 07.15123 12 50 30.71 -11 19 32.8 18.4 V 704 – Lincoln Laboratory ETS, New Mexico MPC 29541
1997 04 07.22968 12 50 27.23 -11 18 40.8   704 – Lincoln Laboratory ETS, New Mexico MPC 29541
1999 10 11.15034 00 18 02.52 +08 15 58.5 19.1   704 – Lincoln Laboratory ETS, New Mexico MPS 25378
1999 10 11.15996 00 18 02.04 +08 15 54.6 19.5   704 – Lincoln Laboratory ETS, New Mexico MPS 25378
1999 10 11.16922 00 18 01.71 +08 15 49.7 19.1   704 – Lincoln Laboratory ETS, New Mexico MPS 25378
1999 10 11.17848 00 18 01.23 +08 15 46.0 19.4   704 – Lincoln Laboratory ETS, New Mexico MPS 25378
1999 10 11.18775 00 18 00.79 +08 15 41.3 19.3   704 – Lincoln Laboratory ETS, New Mexico MPS 25378
2000 12 03.55778 07 56 46.44 +06 21 21.7 18.9   608 – Haleakala-AMOS MPS 24131
2000 12 03.56879 07 56 46.35 +06 21 17.3 18.8   608 – Haleakala-AMOS MPS 24131
2000 12 03.57916 07 56 46.31 +06 21 13.0 18.9   608 – Haleakala-AMOS MPS 24131
2000 12 04.35541 07 56 43.55 +06 15 45.2 18.4   704 – Lincoln Laboratory ETS, New Mexico MPS 24131
2000 12 04.37019 07 56 43.39 +06 15 39.9 19.1   704 – Lincoln Laboratory ETS, New Mexico MPS 24131
2000 12 04.38497 07 56 43.32 +06 15 33.2 18.8   704 – Lincoln Laboratory ETS, New Mexico MPS 24131
2000 12 04.40014 07 56 43.27 +06 15 27.9 19.3   704 – Lincoln Laboratory ETS, New Mexico MPS 24131
2000 12 04.41503 07 56 43.11 +06 15 21.1 19.0   704 – Lincoln Laboratory ETS, New Mexico MPS 24131
2000 12 24.57741 07 49 10.40 +04 22 18.9 18.1   608 – Haleakala-AMOS MPS 24131
2000 12 24.58731 07 49 09.98 +04 22 16.8 18.2   608 – Haleakala-AMOS MPS 24131
2000 12 24.59741 07 49 09.57 +04 22 14.1 18.5   608 – Haleakala-AMOS MPS 24131
2000 12 25.48959 07 48 34.29 +04 18 49.4 17.4   608 – Haleakala-AMOS MPS 24131
2000 12 25.50029 07 48 33.83 +04 18 46.9 17.6   608 – Haleakala-AMOS MPS 24131
2000 12 25.51209 07 48 33.24 +04 18 44.7 17.5   608 – Haleakala-AMOS MPS 24131
2000 12 26.50353 07 47 52.43 +04 15 07.3 17.8   608 – Haleakala-AMOS MPS 24131
2000 12 26.51439 07 47 51.95 +04 15 04.9 17.7   608 – Haleakala-AMOS MPS 24131
2000 12 26.52546 07 47 51.45 +04 15 02.5 17.9   608 – Haleakala-AMOS MPS 24131
2001 01 26.24991 07 21 19.11 +04 11 40.2 18.5   704 – Lincoln Laboratory ETS, New Mexico MPS 25378
2001 01 26.26487 07 21 18.37 +04 11 43.1 18.0   704 – Lincoln Laboratory ETS, New Mexico MPS 25378
2001 01 26.27984 07 21 17.65 +04 11 46.4 18.4   704 – Lincoln Laboratory ETS, New Mexico MPS 25378
2001 01 26.29479 07 21 16.91 +04 11 49.4 18.2   704 – Lincoln Laboratory ETS, New Mexico MPS 25378
2001 02 22.17329 07 08 30.26 +06 23 28.6 18.5   704 – Lincoln Laboratory ETS, New Mexico MPS 26739
2001 02 22.18814 07 08 30.16 +06 23 32.7 18.7   704 – Lincoln Laboratory ETS, New Mexico MPS 26739
2001 02 22.21819 07 08 30.11 +06 23 44.3 18.7   704 – Lincoln Laboratory ETS, New Mexico MPS 26739
2001 02 22.23183 07 08 30.03 +06 23 48.7 18.2   704 – Lincoln Laboratory ETS, New Mexico MPS 26739
2001 03 17.11777 07 16 03.58 +08 30 56.2 18.7   704 – Lincoln Laboratory ETS, New Mexico MPS 27890
2001 03 17.14378 07 16 04.65 +08 31 03.9 19.0   704 – Lincoln Laboratory ETS, New Mexico MPS 27890
2001 03 17.15659 07 16 05.13 +08 31 07.4 19.3   704 – Lincoln Laboratory ETS, New Mexico MPS 27890
2001 03 17.16947 07 16 05.70 +08 31 10.5 19.3   704 – Lincoln Laboratory ETS, New Mexico MPS 27890
2003 09 23.25206 22 19 24.97 +01 11 26.5 20.0   644 – Palomar Mountain/NEAT MPS 85121
2003 09 23.26334 22 19 24.57 +01 11 21.9 20.0   644 – Palomar Mountain/NEAT MPS 85121
2003 09 23.27457 22 19 24.16 +01 11 17.2 20.0   644 – Palomar Mountain/NEAT MPS 85121
2004 11 04.29653 03 53 24.85 +14 48 55.0 19.4 V 691 – Steward Observatory, Kitt Peak-Spacewatch MPS 118327
2004 11 04.32516 03 53 23.44 +14 48 43.6 19.4 V 691 – Steward Observatory, Kitt Peak-Spacewatch MPS 118327
2004 11 04.36051 03 53 21.71 +14 48 29.4 19.4 V 691 – Steward Observatory, Kitt Peak-Spacewatch MPS 118327
2004 11 04.39712 03 53 19.82 +14 48 13.8 18.6 R 703 – Catalina Sky Survey MPS 118327
2004 11 04.40839 03 53 19.30 +14 48 09.4 18.7 R 703 – Catalina Sky Survey MPS 118327
2004 11 04.41966 03 53 18.69 +14 48 06.0 18.5 R 703 – Catalina Sky Survey MPS 118327
2004 11 04.43093 03 53 18.21 +14 47 59.6 18.3 R 703 – Catalina Sky Survey MPS 118327
2004 11 17.57316 03 41 50.61 +13 18 00.3 19.0 R E12 – Siding Spring Survey MPS 119807
2004 11 17.58155 03 41 50.19 +13 17 56.2 18.6 R E12 – Siding Spring Survey MPS 119807
2004 11 17.58994 03 41 49.74 +13 17 52.7 18.1 R E12 – Siding Spring Survey MPS 119807
2004 11 17.59834 03 41 49.12 +13 17 49.7 18.6 R E12 – Siding Spring Survey MPS 119807
2004 11 18.61567 03 40 52.72 +13 10 53.3 18.8 R E12 – Siding Spring Survey MPS 119807
2004 11 18.62245 03 40 52.35 +13 10 50.4 19.1 R E12 – Siding Spring Survey MPS 119807
2004 11 18.62919 03 40 51.94 +13 10 48.3 19.3 R E12 – Siding Spring Survey MPS 119807
2004 11 18.63596 03 40 51.53 +13 10 44.8 18.8 R E12 – Siding Spring Survey MPS 119807
2004 11 19.28454 03 40 15.63 +13 06 16.6 17.9 R 703 – Catalina Sky Survey MPS 119807
2004 11 19.29277 03 40 15.21 +13 06 13.1 18.4 R 703 – Catalina Sky Survey MPS 119807
2004 11 19.30102 03 40 14.65 +13 06 10.6 18.9 R 703 – Catalina Sky Survey MPS 119807
2004 11 19.30934 03 40 14.18 +13 06 07.3 19.0 R 703 – Catalina Sky Survey MPS 119807
2004 12 10.49888 03 22 07.59 +11 00 58.3 20.2   608 – Haleakala-AMOS MPS 121131
2004 12 10.50959 03 22 07.14 +11 00 54.5 19.7   608 – Haleakala-AMOS MPS 121131
2004 12 10.52004 03 22 06.68 +11 00 51.8 19.7   608 – Haleakala-AMOS MPS 121131
2004 12 18.22737 03 17 20.04 +10 29 34.1 19.4   704 – Lincoln Laboratory ETS, New Mexico MPS 122645
2004 12 18.25388 03 17 19.16 +10 29 26.4 20.1   704 – Lincoln Laboratory ETS, New Mexico MPS 122645
2004 12 18.26696 03 17 18.74 +10 29 25.5 20.0   704 – Lincoln Laboratory ETS, New Mexico MPS 122645
2004 12 18.27996 03 17 18.34 +10 29 22.2 19.7   704 – Lincoln Laboratory ETS, New Mexico MPS 122645
2006 01 31.50045 14 19 21.10 -18 27 47.4 20.0 V 703 – Catalina Sky Survey MPS 161618
2006 01 31.50698 14 19 21.57 -18 27 48.4 19.1 V 703 – Catalina Sky Survey MPS 161618
2006 01 31.51351 14 19 21.82 -18 27 50.5 19.4 V 703 – Catalina Sky Survey MPS 161618
2006 01 31.51999 14 19 22.44 -18 27 51.5 19.8 V 703 – Catalina Sky Survey MPS 161618
2006 03 25.45430 14 48 45.21 -17 42 37.7 18.6 R 644 – Palomar Mountain/NEAT MPS 166931
2006 03 25.47109 14 48 44.94 -17 42 31.1 18.4 R 644 – Palomar Mountain/NEAT MPS 166931
2006 03 25.48423 14 48 44.73 -17 42 26.7 18.4 R 644 – Palomar Mountain/NEAT MPS 166931
2006 03 26.41123 14 48 31.43 -17 36 52.9 19.3 V 691 – Steward Observatory, Kitt Peak-Spacewatch MPS 166931
2006 03 26.42855 14 48 31.13 -17 36 46.4 19.2 V 691 – Steward Observatory, Kitt Peak-Spacewatch MPS 166931
2006 03 26.44586 14 48 30.82 -17 36 40.1 19.4 V 691 – Steward Observatory, Kitt Peak-Spacewatch MPS 166931
2006 04 09.35558 14 42 17.65 -15 54 49.4   691 – Steward Observatory, Kitt Peak-Spacewatch MPS 168778
2006 04 09.37293 14 42 16.95 -15 54 40.7   691 – Steward Observatory, Kitt Peak-Spacewatch MPS 168778
2006 04 09.39027 14 42 16.28 -15 54 32.0   691 – Steward Observatory, Kitt Peak-Spacewatch MPS 168778
2006 04 19.35790 14 35 17.88 -14 25 21.3 18.1 V G96 – Mt. Lemmon Survey MPS 169093
2006 04 19.36666 14 35 17.44 -14 25 16.3 18.2 V G96 – Mt. Lemmon Survey MPS 169093
2006 04 19.37522 14 35 17.01 -14 25 11.5 18.2 V G96 – Mt. Lemmon Survey MPS 169093
2006 04 19.38395 14 35 16.58 -14 25 06.6 18.2 V G96 – Mt. Lemmon Survey MPS 169093
2006 04 19.98791 14 34 48.85 -14 19 27.8 17.9 R 185 – Observatoire Astronomique Jurassien-Vicques MPS 169093
